Regional Weather Roundup
Issued by NWS

Home | Current Version | Previous Version | Graphics & Text | Print | Product List | Glossary On
Versions: 1 2 3 4 5 6 7 8 9 10 11 12 13 14 15 16 17 18 19 20 21 22 23 24 25 26 27 28 29 30 31 32 33 34 35 36 37 38 39 40 41 42 43 44 45 46 47 48 49 50
000
ASUS43 KIND 240009
RWRIN

WEATHER ROUNDUP FOR INDIANA
NATIONAL WEATHER SERVICE INDIANAPOLIS IN
800 PM EDT SAT JUL 23 2016

NOTE: "FAIR" INDICATES FEW OR NO CLOUDS BELOW 12,000 FEET WITH NO
SIGNIFICANT WEATHER AND/OR OBSTRUCTIONS TO VISIBILITY.

* - STATION DOES NOT REPORT WEATHER SUCH AS PRECIPITATION OR FOG.

+ - STATION NOT QUALITY CONTROLLED BY THE NATIONAL WEATHER SERVICE.
    USE DATA WITH CAUTION...ESPECIALLY DEWPOINT AND RELATIVE
    HUMIDITY OBSERVATIONS.

INZ001>003-010>013-019-020-240100-
NORTHWEST INDIANA

CITY           SKY/WX    TMP DP  RH WIND       PRES   REMARKS
GARY /AIRPORT/ PTSUNNY   88 N/A N/A S6        29.92S
KNOX *+        MOSUNNY   82  70  65 CALM      29.95R
LA PORTE +     MOSUNNY   86  82  87 CALM      29.95S HX 104
6HR MIN TEMP:  86; 6HR MAX TEMP:  92;

MICHIGAN CITY+ CLOUDY    82  73  74 E3        29.94F
MONTICELLO +   SUNNY     85  73  66 CALM      29.94S
6HR MIN TEMP:  85; 6HR MAX TEMP:  90;

RENSSELAER +   MOSUNNY   84  79  84 CALM      29.94S HX  96
VALPARAISO     MOSUNNY   86  77  74 S3        29.94S HX  97
6HR MIN TEMP:  86; 6HR MAX TEMP:  91;


$$

LMZ046-743>745-240100-
SOUTHERN LAKE MICHIGAN

STATION/POSITION TIME  TEMP    WIND        PRES    WAVE
                       AIR SEA DIR/SP/G            HT
                 (UTC) (F)     (DEG/KT/KT) (MB)    (FT)
BURNS HARBOR     2300   80      80/  8/ 10 1013.5F
MICHIGAN CITY    2300   82      40/  8/  9   N/A
5NW MICH CITY    0000   79 77   80/  6/  6   N/A     1

$$

INZ004-005-014>016-021>024-240100-
NORTH CENTRAL INDIANA

CITY           SKY/WX    TMP DP  RH WIND       PRES   REMARKS
LOGANSPORT +   SUNNY     86  73  66 CALM      29.96R
PERU/GRISSOM   MOSUNNY   86  76  70 W5        29.94S HX  96
6HR MIN TEMP:  86; 6HR MAX TEMP:  91;

ROCHESTER +    MOSUNNY   88  77  70 W3        29.96R HX 100
SOUTH BEND     TSTM      77  65  66 SE12      29.96R VSB 3/4
6HR MIN TEMP:  73; 6HR MAX TEMP:  91; 6HR PCP:  0.66;

WARSAW +         N/A     86  77  74 W8        29.95S HX  97

$$

INZ006>009-017-018-025>027-240100-
NORTHEAST INDIANA

CITY           SKY/WX    TMP DP  RH WIND       PRES   REMARKS
ANGOLA *+        N/A     88  82  84 CALM      29.97F HX 108
AUBURN +       PTSUNNY   86  68  54 CALM      29.96S
FORT WAYNE     CLOUDY    87  75  67 SW6       29.96R HX  96
6HR MIN TEMP:  87; 6HR MAX TEMP:  92;

HUNTINGTON +   CLOUDY   N/A N/A N/A CALM      29.95S

$$

INZ028-029-035-036-043>045-051>053-240100-
WEST CENTRAL INDIANA

CITY           SKY/WX    TMP DP  RH WIND       PRES   REMARKS
CRAWFORDSVL +  MOSUNNY   82  78  87 CALM      29.96S
6HR MIN TEMP:  82; 6HR MAX TEMP:  87;

GREENCASTLE +  MOSUNNY   84  79  84 CALM      29.95F HX  96
LAFAYETTE      SUNNY     86  77  74 SW3       29.94S HX  97
6HR MIN TEMP:  84; 6HR MAX TEMP:  89;

TERRE HAUTE    MOSUNNY   87  74  64 CALM      29.93F HX  95
6HR MIN TEMP:  87; 6HR MAX TEMP:  91;


$$

INZ030>032-037>040-046>048-054>057-064-065-240100-
CENTRAL INDIANA

CITY           SKY/WX    TMP DP  RH WIND       PRES   REMARKS
COLUMBUS       SUNNY     86  75  70 CALM      29.95S HX  95
FRANKFORT +    SUNNY     87  79  77 W3        29.98S HX 102
6HR MIN TEMP:  87; 6HR MAX TEMP:  94;

INDIANAPOLIS   MOSUNNY   87  71  58 W7        29.95S
6HR MIN TEMP:  86; 6HR MAX TEMP:  90;

-EAGLE CREEK   MOSUNNY   88  74  63 W6        29.94S HX  96
6HR MIN TEMP:  88; 6HR MAX TEMP:  92;

KOKOMO *+      CLOUDY    86  73  66 CALM      29.95S
6HR MIN TEMP:  86; 6HR MAX TEMP:  91;

MARION +       CLOUDY    86  73  66 CALM      29.97R HAZE
MT COMFORT *+  MOSUNNY   84  75  74 S5        29.96S
SHELBYVILLE    SUNNY     88  76  67 S3        29.95S HX  99
6HR MIN TEMP:  87; 6HR MAX TEMP:  90;

ZIONSVILLE +   MOSUNNY   85  76  74 W3        29.96F
6HR MIN TEMP:  84; 6HR MAX TEMP:  88;


$$

INZ033-034-041-042-049-050-058-059-240100-
EAST CENTRAL INDIANA

CITY           SKY/WX    TMP DP  RH WIND       PRES   REMARKS
MUNCIE         CLOUDY    89  73  59 NW3       29.96S HX  97
6HR MIN TEMP:  87; 6HR MAX TEMP:  91;


$$

INZ060-061-067>069-081>083-085>088-240100-
SOUTHWEST INDIANA

CITY           SKY/WX    TMP DP  RH WIND       PRES   REMARKS
EVANSVILLE     SUNNY     89  76  65 CALM      29.92S HX 100
6HR MIN TEMP:  87; 6HR MAX TEMP:  92;

HUNTINGBURG *+ SUNNY     90  75  62 CALM      29.94R HX 100
6HR MIN TEMP:  88; 6HR MAX TEMP:  91;

WASHINGTON +   SUNNY     87  79  77 MISG      29.93R HX 102
6HR MIN TEMP:  86; 6HR MAX TEMP:  90;


$$

INZ062-063-066-070>080-084-089>092-240100-
SOUTH CENTRAL AND SOUTHEAST INDIANA

CITY           SKY/WX    TMP DP  RH WIND       PRES   REMARKS
BLOOMINGTON    SUNNY     87  77  72 CALM      29.95F HX  99
6HR MIN TEMP:  85; 6HR MAX TEMP:  92;

MADISON *+     SUNNY     88  72  58 CALM      29.98R
SEYMOUR +      SUNNY     91  73  55 CALM      29.95R HX 100

$$





USA.gov is the U.S. government's official web portal to all federal, state and local government web resources and services.